Volver al catálogo

FREGAT DEB

LostUNKNOWN
NORAD 45976·DEBRIS·🇷🇺 Russia

Lanzado Jul 18, 2011 desde Baikonur Cosmodrome

Loading…

Próximos Pases (próximas 24 horas)

TLE

ObsoletoSource: Space-Track

Época: Jul 12, 2021, 21:17 UTC

1 45976U 11037GH  21193.88709625  .11641727  00000-0  71189+0 0  9998
2 45976  51.0528  54.5067 1343483 163.1362 201.9079 12.66629810 22338

Sigue FREGAT DEB en tiempo real con AllMySat

Download on the App Store